Tracking 22130 objects as of 21-Jan-2021
HD Live streaming from Space Station
objects crossing your sky now

METEOR 2-17 DEB

Track METEOR 2-17 DEB now!
10-day predictions


NORAD ID: 35365
Int'l Code: 1988-005Z
Perigee: 919.2 km
Apogee: 935.5 km
Inclination: 82.5 °
Period: 103.4 minutes
Semi major axis: 7298 km
RCS: 0.0068 m2 (small)
Launch date: January 30, 1988
Source: Commonwealth of Independent States (former USSR) (CIS)
Launch site: PLESETSK MISSILE AND SPACE COMPLEX (PKMTR)

Note: This is SATELLITE DEBRIS
aabbcc
Your satellite tracking list
Your tracking list is empty




NASA's NSSDC Master Catalog

Two Line Element Set (TLE):
1 35365U 88005Z   21021.08916744  .00000418  00000-0  31322-3 0  9995
2 35365  82.5182  62.7355 0011162 104.2699 285.2850 13.92414741657194
Source of the keplerian elements: AFSPC